EW4120 Weather Reports


Display with metric or nautical units.
time (UTC)temp
F
wind
direction
speed
MPH
gust
MPH
rain 1hr
in
rain 24hr
in
rain mn
in
humidity
%
barometer
mb
20260510173637 80 23 1.0 4.0 0.00 0.00 0.00 38 1016.5
20260510172537 80 248 1.0 4.0 0.00 0.00 0.00 39 1016.5
20260510171537 80 0.0 3.0 0.00 0.00 0.00 37 1016.5
20260510170517 79 0.0 2.0 0.00 0.00 0.00 41 1016.5
20260510165517 79 45 1.0 4.0 0.00 0.00 0.00 41 1016.6
20260510164517 78 270 1.0 2.0 0.00 0.00 0.00 41 1016.8
20260510163517 79 0.0 1.0 0.00 0.00 0.00 46 1016.8
20260510162517 78 23 1.0 4.0 0.00 0.00 0.00 39 1016.9
20260510161537 78 0.0 2.0 0.00 0.00 0.00 45 1016.8
20260510160517 78 23 1.0 4.0 0.00 0.00 0.00 44 1016.9
20260510155557 77 315 1.0 3.0 0.00 0.00 0.00 43 1016.9
20260510154537 77 0.0 3.0 0.00 0.00 0.00 46 1017.0
20260510153537 77 45 1.0 5.0 0.00 0.00 0.00 49 1017.0
20260510152517 76 0.0 3.0 0.00 0.00 0.00 49 1016.9
20260510151537 76 45 1.0 3.0 0.00 0.00 0.00 50 1017.0
20260510150557 75 45 1.0 5.0 0.00 0.00 0.00 52 1016.9
20260510145557 74 0.0 2.0 0.00 0.00 0.00 57 1017.0
20260510144517 74 0.0 3.0 0.00 0.00 0.00 56 1017.1
20260510143537 73 23 1.0 4.0 0.00 0.00 0.00 57 1017.1
20260510142517 72 23 1.0 3.0 0.00 0.00 0.00 57 1017.0
20260510141657 71 45 1.0 5.0 0.00 0.00 0.00 65 1017.0
20260510140517 70 0.0 2.0 0.00 0.00 0.00 69 1016.9
20260510135517 69 0.0 4.0 0.00 0.00 0.00 72 1017.0
20260510134517 68 0.0 4.0 0.00 0.00 0.00 75 1017.0
20260510133517 66 0.0 1.0 0.00 0.00 0.00 83 1016.8
20260510132537 64 0.0 3.0 0.00 0.00 0.00 90 1016.8
20260510131516 62 0.0 2.0 0.00 0.00 0.00 97 1016.8
20260510130537 61 0.0 0.0 0.00 0.00 0.00 98 1016.7
20260510125557 61 45 1.0 3.0 0.00 0.00 0.00 99 1016.8
20260510124516 61 0.0 1.0 0.00 0.00 0.00 99 1016.7
20260510123536 59 0.0 0.0 0.00 0.00 0.00 99 1016.5
20260510122537 58 0.0 0.0 0.00 0.00 0.00 99 1016.3
20260510121617 57 0.0 0.0 0.00 0.00 0.00 99 1016.2
20260510120536 56 0.0 0.0 0.00 0.00 0.00 99 1015.8
20260510115516 55 0.0 0.0 0.00 0.00 0.00 98 1015.6
20260510114516 53 0.0 0.0 0.00 0.00 0.00 98 1015.4
20260510113556 53 0.0 0.0 0.00 0.00 0.00 98 1015.2
20260510112516 52 0.0 0.0 0.00 0.00 0.00 98 1015.1
20260510111616 51 0.0 0.0 0.00 0.00 0.00 97 1015.1
20260510110637 51 0.0 0.0 0.00 0.00 0.00 97 1014.9
20260510105516 50 0.0 0.0 0.00 0.00 0.00 97 1014.7
20260510103536 51 0.0 0.0 0.00 0.00 0.00 97 1014.4
20260510102556 51 0.0 0.0 0.00 0.00 0.00 97 1014.3
20260510101536 51 0.0 0.0 0.00 0.00 0.00 97 1014.2
20260510100516 51 0.0 0.0 0.00 0.00 0.00 97 1014.0
20260510095516 52 0.0 0.0 0.00 0.00 0.00 97 1013.9
20260510094516 52 0.0 0.0 0.00 0.00 0.00 97 1013.8
20260510093516 53 0.0 0.0 0.00 0.00 0.00 97 1013.7
20260510092657 53 0.0 0.0 0.00 0.00 0.00 97 1013.7
20260510091556 53 0.0 0.0 0.00 0.00 0.00 97 1013.7
20260510090536 53 0.0 0.0 0.00 0.00 0.00 97 1013.9
20260510085616 54 0.0 0.0 0.00 0.00 0.00 97 1013.7
20260510084536 54 0.0 0.0 0.00 0.00 0.00 97 1013.4
20260510083556 54 0.0 0.0 0.00 0.00 0.00 97 1013.4
20260510082516 53 0.0 0.0 0.00 0.00 0.00 97 1013.4
20260510081636 54 0.0 0.0 0.00 0.00 0.00 97 1013.2
20260510080536 54 0.0 0.0 0.00 0.00 0.00 97 1013.1
20260510075516 54 0.0 0.0 0.00 0.00 0.00 96 1013.0
20260510074516 54 0.0 0.0 0.00 0.00 0.00 97 1012.9
20260510073516 54 0.0 0.0 0.00 0.00 0.00 97 1012.9
20260510072516 54 0.0 0.0 0.00 0.00 0.00 96 1012.9
20260510071556 54 0.0 0.0 0.00 0.00 0.00 96 1012.7
20260510070516 55 0.0 0.0 0.00 0.00 0.00 96 1012.7
20260510064556 55 0.0 0.0 0.00 0.00 0.00 96 1012.8
20260510063536 56 0.0 0.0 0.00 0.00 0.00 96 1012.8
20260510062556 56 0.0 0.0 0.00 0.00 0.00 97 1012.8
20260510061516 56 0.0 0.0 0.00 0.00 0.00 96 1012.9
20260510060536 56 0.0 0.0 0.00 0.00 0.00 96 1012.9
20260510055516 57 0.0 0.0 0.00 0.00 0.00 96 1012.9
20260510054516 57 0.0 0.0 0.00 0.00 0.00 96 1012.9
20260510053516 57 0.0 0.0 0.00 0.00 0.00 97 1013.0
20260510052516 57 0.0 0.0 0.00 0.00 0.00 96 1013.2
20260510051536 57 0.0 0.0 0.00 0.00 0.00 96 1013.2
20260510050556 57 0.0 0.0 0.00 0.00 0.00 96 1013.2
20260510045516 57 0.0 0.0 0.00 0.00 0.00 95 1013.2
20260510044538 57 0.0 0.0 0.00 0.00 0.00 95 1013.2
20260510043538 57 0.0 0.0 0.00 0.00 0.00 95 1013.3
20260510042658 57 0.0 0.0 0.00 0.00 0.00 95 1013.2
20260510041658 58 0.0 0.0 0.00 0.00 0.00 95 1013.1
20260510040538 58 0.0 0.0 0.00 0.00 0.00 95 1013.1
20260510035516 58 0.0 0.0 0.00 0.00 0.00 95 1013.0
20260510034516 58 0.0 0.0 0.00 0.00 0.00 95 1013.1
20260510033536 58 0.0 0.0 0.00 0.00 0.00 95 1013.1
20260510032536 58 0.0 0.0 0.00 0.00 0.00 94 1013.1
20260510031536 59 0.0 0.0 0.00 0.00 0.00 94 1013.1
20260510030536 59 0.0 0.0 0.00 0.00 0.00 94 1013.1
20260510025556 59 0.0 0.0 0.00 0.00 0.00 94 1013.0
20260510024556 59 0.0 0.0 0.00 0.00 0.00 93 1013.0
20260510023637 59 0.0 0.0 0.00 0.00 0.00 93 1012.9
20260510022516 59 0.0 0.0 0.00 0.00 0.00 92 1012.9
20260510021556 60 0.0 0.0 0.00 0.00 0.00 92 1012.7
20260510020516 60 0.0 0.0 0.00 0.00 0.00 92 1012.7
20260510015516 60 0.0 0.0 0.00 0.00 0.00 91 1012.6
20260510014516 61 0.0 0.0 0.00 0.00 0.00 91 1012.5
20260510013516 61 0.0 0.0 0.00 0.00 0.00 91 1012.3
20260510012656 62 0.0 0.0 0.00 0.00 0.00 89 1012.1
20260510011516 62 0.0 0.0 0.00 0.00 0.00 88 1011.7
20260510010556 63 0.0 0.0 0.00 0.00 0.00 89 1011.7
20260510005536 64 0.0 0.0 0.00 0.00 0.00 86 1011.5
20260510004556 64 0.0 0.0 0.00 0.00 0.00 86 1011.3
20260510003516 65 0.0 0.0 0.00 0.00 0.00 85 1011.1
20260510002656 66 0.0 0.0 0.00 0.00 0.00 83 1011.1
20260510001516 67 0.0 0.0 0.00 0.00 0.00 81 1011.0
20260509235538 69 0.0 0.0 0.00 0.00 0.00 79 1010.9
20260509234518 70 0.0 0.0 0.00 0.00 0.00 78 1010.8
20260509233538 70 0.0 1.0 0.00 0.00 0.00 77 1010.6
20260509232517 71 0.0 3.0 0.00 0.00 0.00 76 1010.6
20260509231517 72 0.0 1.0 0.00 0.00 0.00 75 1010.3
20260509230618 72 0.0 2.0 0.00 0.00 0.00 74 1010.4
20260509225517 73 293 1.0 4.0 0.00 0.00 0.00 73 1010.3
20260509224517 73 315 1.0 6.0 0.00 0.00 0.00 71 1010.1
20260509223517 74 0.0 3.0 0.00 0.00 0.00 70 1010.0
20260509222517 74 0.0 2.0 0.00 0.00 0.00 70 1010.2
20260509221558 75 293 1.0 6.0 0.00 0.00 0.00 68 1010.1
20260509220517 75 0.0 3.0 0.00 0.00 0.00 69 1010.2
20260509215538 75 315 1.0 5.0 0.00 0.00 0.00 68 1010.1
20260509214557 75 315 1.0 5.0 0.00 0.00 0.00 68 1010.1
20260509213557 76 0.0 2.0 0.00 0.00 0.00 68 1010.2
20260509212517 75 0.0 2.0 0.00 0.00 0.00 70 1010.1
20260509211517 74 338 1.0 5.0 0.00 0.00 0.00 69 1010.2
20260509210517 76 68 1.0 5.0 0.00 0.00 0.00 66 1010.1
20260509205517 77 0.0 2.0 0.00 0.00 0.00 69 1010.1
20260509204557 76 315 1.0 3.0 0.00 0.00 0.00 70 1009.8
20260509203537 74 0.0 2.0 0.00 0.00 0.00 72 1010.0
20260509202557 73 135 1.0 5.0 0.00 0.00 0.00 70 1010.3
20260509201517 75 315 1.0 4.0 0.00 0.00 0.00 68 1010.2
20260509200557 75 315 1.0 5.0 0.00 0.00 0.00 68 1010.3
20260509195638 75 293 1.0 5.0 0.00 0.00 0.00 73 1010.4
20260509194557 74 315 1.0 5.0 0.00 0.00 0.00 72 1010.4
20260509193517 73 315 1.0 5.0 0.00 0.00 0.00 76 1010.5
20260509192517 72 315 1.0 5.0 0.00 0.00 0.00 77 1010.7
20260509191557 71 0.0 2.0 0.00 0.00 0.00 76 1010.7
20260509190557 71 315 1.0 5.0 0.00 0.00 0.00 74 1010.7
20260509185517 72 0.0 1.0 0.00 0.00 0.00 72 1010.8
20260509184517 71 315 1.0 3.0 0.00 0.00 0.00 73 1010.8
20260509183517 72 315 1.0 4.0 0.00 0.00 0.00 73 1010.7
20260509182517 71 0.0 2.0 0.00 0.00 0.00 74 1010.9
20260509181517 71 315 1.0 5.0 0.00 0.00 0.00 75 1011.2
20260509180517 70 293 2.0 7.0 0.00 0.00 0.00 73 1011.2
20260509175517 70 315 1.0 4.0 0.00 0.00 0.00 76 1011.3